Regional Weather Roundup
Issued by NWS

Home | Current Version | Previous Version | Graphics & Text | Print | Product List | Glossary Off
Versions: 1 2 3 4 5 6 7 8 9 10 11 12 13 14 15 16 17 18 19 20 21 22 23 24 25 26 27 28 29 30 31 32 33 34 35 36 37 38 39 40 41 42 43 44 45 46 47 48 49 50

000
ASUS43 KDTX 190210
RWRMI
MICHIGAN HOURLY REGIONAL WEATHER ROUNDUP
NATIONAL WEATHER SERVICE DETROIT/PONTIAC MI
1000 PM EDT THU SEP 18 2014

NOTE: "FAIR" INDICATES FEW OR NO CLOUDS BELOW 12,000 FEET WITH NO
SIGNIFICANT WEATHER AND/OR OBSTRUCTION TO VISIBILITY.

MIZ047>049-052>055-059>063-066>070-074>076-081>083-190300-
SOUTHEAST LOWER MICHIGAN

CITY           SKY/WX    TMP DP  RH WIND       PRES   REMARKS
ADRIAN         PTCLDY    56  52  86 E9        30.19R
ALMA           CLEAR     46  45  95 NE3       30.21R
ANN ARBOR      CLOUDY    57  49  74 NE6       30.19R
BAD AXE        CLEAR     41  39  93 NE3       30.24R
DETROIT CITY   CLEAR     53  44  71 NE6       30.21R
DETROIT        PTCLDY    55  48  77 NE5       30.20R
FLINT          CLEAR     52  45  77 E10       30.22R
GROSSE ILE     CLEAR     54  48  82 NE7       30.19R
HILLSDALE      CLEAR     55  53  93 E5        30.18R
HOWELL         CLEAR     50  49  95 CALM      30.20R

CITY           SKY/WX    TMP DP  RH WIND       PRES   REMARKS
JACKSON        CLEAR     53  49  86 E3        30.19R
LAMBERTVILLE   CLEAR     55  52  88 NE3       30.19R
LANSING        CLEAR     50  47  89 NE3       30.21R
LAPEER         NOT AVBL
MASON          CLEAR     49  47  93 CALM      30.19R
MONROE         CLEAR     54  48  82 NE6       30.18R
MT. CLEMENS    CLEAR     48  48  99 N6        30.20R
PONTIAC        CLEAR     50  44  80 E6        30.20R
PORT HOPE        N/A     51  41  68 NE10      30.23R
PORT HURON     CLEAR     41  39  93 CALM      30.22R FOG
TRI CITIES     CLEAR     47  42  83 E8        30.23R
YPSILANTI      MOCLDY    58  48  69 E7        30.20R
$$
MIZ043>046-050>051-056>058-064>065-071>073-077>080-190300-
SOUTHWEST LOWER MICHIGAN

CITY           SKY/WX    TMP DP  RH WIND       PRES   REMARKS
BATTLE CREEK   CLEAR     57  50  77 E7        30.19R
BENTON HARBOR  CLEAR     54  52  93 CALM      30.15R
BIG RAPIDS       N/A     49  49 100 CALM      30.19S FOG
COLDWATER      CLEAR     57  53  85 E6        30.17R
HOLLAND        CLEAR     57  53  86 E6        30.19R
GRAND RAPIDS   CLEAR     53  51  93 E6        30.19R
KALAMAZOO      CLEAR     57  51  80 CALM      30.18R
MARSHALL       CLEAR     53  50  89 E3        30.18R
MUSKEGON       PTCLDY    56  51  84 E7        30.19R
$$
MIZ016>042-190300-
NORTHERN LOWER MICHIGAN

CITY           SKY/WX    TMP DP  RH WIND       PRES   REMARKS
ALPENA         CLEAR     38  36  92 CALM      30.24R
BEAVER ISLAND  CLEAR     43  42  96 CALM      30.19S
CADILLAC       CLOUDY    50  49  95 SE6       30.18R
CHARLEVOIX     CLEAR     48  44  85 SE5       30.22R
FRANKFORT      PTCLDY    47  44  87 CALM      30.17S
GAYLORD        CLEAR     44  40  85 SE8       30.20R
GRAYLING       MOCLDY    49  45  85 SE6       30.21R
HARBOR SPRINGS CLEAR     46  39  78 E10       30.21R HAZE
HOUGHTON LAKE  PTCLDY    43  41  93 E5        30.21R
MANISTEE       PTCLDY    48  45  87 CALM      30.18R
OSCODA         CLEAR     47  38  70 E6        30.23S
PELLSTON       CLEAR     40  37  89 E5        30.22R
TRAVERSE CITY  PTCLDY    48  44  86 CALM      30.17R
$$
MIZ007>008-015-190300-
EASTERN UPPER MICHIGAN

CITY           SKY/WX    TMP DP  RH WIND       PRES   REMARKS
KINROSS        PTCLDY    39  37  93 SE6       30.22S
MACKINAC ISLAN PTCLDY    47  39  72 SE9G17    30.22R
NEWBERRY       PTCLDY    39  37  90 SE6       30.19F
S. S. MARIE    PTCLDY    42  35  76 SE6       30.21S
$$
MIZ004>006-011>014-085-190300-
CENTRAL UPPER MICHIGAN

CITY           SKY/WX    TMP DP  RH WIND       PRES   REMARKS
MANISTIQUE     CLEAR     38  37  97 CALM      30.18S
ESCANABA       PTCLDY    45  41  87 CALM      30.17S
MENOMINEE      CLEAR     50  45  81 S6        30.15F
SAWYER-GWINN   CLEAR     46  41  81 S10       30.14S
$$
MIZ001>003-009>011-084-190300-
WESTERN UPPER MICHIGAN

CITY           SKY/WX    TMP DP  RH WIND       PRES   REMARKS
IRON MOUNTAIN  CLEAR     48  44  86 SE6       30.14R
HOUGHTON       PTCLDY    44  40  85 E6        30.10S
COPPER HARBOR    N/A     47  40  76 S5        30.11F
IRONWOOD       CLEAR     48  46  93 CALM      30.05F
$$

ABBREVIATIONS USED IN REMARKS
   TC - TEMPERATURE IN CELSIUS
  WCI - WIND CHILL INDEX
   HX - HEAT INDEX
  VSB - VISIBILITY




USA.gov is the U.S. government's official web portal to all federal, state and local government web resources and services.